Regional Weather Roundup
Issued by NWS

Home | Current Version | Previous Version | Graphics & Text | Print | Product List | Glossary On
Versions: 1 2 3 4 5 6 7 8 9 10 11 12 13 14 15 16 17 18 19 20 21 22 23 24 25 26 27 28 29 30 31 32 33 34 35 36 37 38 39 40 41 42 43 44 45 46 47 48 49 50
000
ASUS43 KBIS 251102
RWRND

NORTH DAKOTA REGIONAL WEATHER ROUNDUP
NATIONAL WEATHER SERVICE BISMARCK ND
600 AM CDT SAT MAR 25 2017

NOTE: "FAIR" INDICATES FEW OR NO CLOUDS BELOW 12,000 FEET WITH NO
SIGNIFICANT WEATHER AND/OR OBSTRUCTIONS TO VISIBILITY.


NDZ001>003-009>011-017-251200-
NORTHWEST NORTH DAKOTA

CITY           SKY/WX    TMP DP  RH WIND       PRES   REMARKS
WILLISTON      FAIR      43  32  65 S12       29.84S
MINOT          CLOUDY    32  30  92 SE10      29.97F
MINOT AFB      CLOUDY    32  30  93 SE15      29.96F
$$

NDZ018>021-031>035-040>046-251200-
SOUTHWEST NORTH DAKOTA

CITY           SKY/WX    TMP DP  RH WIND       PRES   REMARKS
BISMARCK       CLOUDY    31  31 100 SE13      30.05F FOG
DICKINSON      FAIR      33  29  85 S18       29.87F
GARRISON         N/A     30  29  96 SE14      29.97F WCI  19
HETTINGER ARPT CLOUDY    34  29  82 SE10      29.95S
$$

NDZ004>008-012>016-024-026-027-054-251200-
NORTHEAST NORTH DAKOTA

CITY           SKY/WX    TMP DP  RH WIND       PRES   REMARKS
GRAND FORKS    CLEAR     27  26  96 SE7       30.16F WCI  19
GRND FRKS AFB  CLEAR     23  23 100 SE5       30.16F FOG     WCI  17
DEVILS LAKE    FAIR      26  25  96 SE9       30.10F WCI  17
$$

NDZ022-023-025-028>030-036>039-047>053-251200-
SOUTHEAST NORTH DAKOTA

CITY           SKY/WX    TMP DP  RH WIND       PRES   REMARKS
FARGO          CLEAR     29  27  92 SE3       30.17S
JAMESTOWN      FAIR      25  24  96 SE3       30.11F FOG
$$





USA.gov is the U.S. government's official web portal to all federal, state and local government web resources and services.